Location: Martz Observatory
(42.0083°N, 79.0667°W)
Time: 15:38:23
(UTC-04:00)

Meteor 1-23 Rocket - Visible Passes

Search period start: 27 May 2018 00:00
Search period end: 06 June 2018 00:00
Orbit: 838 x 888 km, 81.3° (Epoch: 27 May)

Date Brightness Start Highest point End Pass type
(mag) Time Alt. Az. Time Alt. Az. Time Alt. Az.
27 May 4.9 21:31:32 10° SSE 21:36:32 35° E 21:41:32 10° NNE visible
27 May 5.9 23:14:53 10° SW 23:19:43 30° WNW 23:24:35 10° N visible
28 May 4.9 21:23:12 10° SSE 21:28:10 35° E 21:33:10 10° NNE visible
28 May 5.9 23:06:30 10° SW 23:11:20 30° WNW 23:16:13 10° N visible
29 May 4.9 21:14:51 10° SSE 21:19:48 34° E 21:24:46 10° NNE visible
29 May 5.9 22:58:06 10° SW 23:02:58 31° WNW 23:07:52 10° N visible
30 May 5.9 22:49:43 10° SW 22:54:35 31° WNW 22:59:30 10° N visible
31 May 5.9 22:41:20 10° SW 22:46:13 31° WNW 22:51:08 10° N visible
01 Jun 5.9 22:32:56 10° SW 22:37:51 32° WNW 22:42:47 10° N visible
02 Jun 5.9 22:24:33 10° SW 22:29:28 32° WNW 22:34:26 10° N visible
03 Jun 6.0 22:16:10 10° SW 22:21:06 32° WNW 22:26:05 10° N visible
04 Jun 6.0 22:07:45 10° SW 22:12:43 33° WNW 22:17:43 10° N visible
05 Jun 6.0 21:59:22 10° SW 22:04:21 33° WNW 22:09:22 10° N visible
